User: anonymous   Login
Location: Fairmont
(43.6520°N, 94.4610°W)
Time: 13:06:13
(UTC-05:00)
Language:

Cosmos-2242 - Orbit

View from above orbital plane
View from above orbital plane
View from above satellite
View from above satellite

Ground track
Ground track

The orbit data is extracted from the following two-line orbital elements,

1 22626U 93024A   15147.76212215  .00000655  00000-0  70223-4 0  9994
2 22626 082.5237 029.9025 0020953 093.8339 266.5274 14.86965816194457
Epoch (UTC): 27 May 2015 18:17:27
Eccentricity: 0.0020953
inclination: 82.5237°
perigee height: 593 km
apogee height: 622 km
right ascension of ascending node: 29.9025°
argument of perigee: 93.8339°
revolutions per day: 14.86965816
mean anomaly at epoch: 266.5274°
orbit number at epoch: 19445

The dashed part of the orbit path shows where the satellite is in the earth's shadow,  

DLR